STARLINK-30148, 57617

Orbit data source: Space-Track

STARLINK-30148, 57617 is a payload satellite owned by SpaceX/Seattle (US) in LEO that was launched on Fri, 11 Aug 2023 UTC via an FALCON 9 launch vehicle from the Air Force Eastern Test Range (AFETR). Payload-class satellites include a variety of spacecraft equipped with specific instruments for various scientific and technological missions. These include communications satellites like Starlink; space stations such as the ISS; scientific satellites like the Hubble; Earth observation satellites from companies like Planet Labs, Umbra, and HawkEye 360; GPS; miniature CubeSats for education and research; and military/defense satellites.

Loading next visibility...
Identifier
57617, 2023-119R
Orbit
LEO
Country
Flag of USUS
Related business
Manufacturer
SpaceX/Seattle
Mission
Operational Commercial Communications
Bus & Motor
STARLINK V2M, Unknown motor
Mass
730 kg wet, ~700 kg dry
Launch date (UTC)
2023-08-11 (3 years ago)
Launch vehicle
FALCON 9
Launch site
Air Force Eastern Test Range (AFETR)
Object type
Payload
Rocket body
Debris
Shape & HBR
Box + 2 Pan, 17.7 m
Radar Cross Section
33.884 m², Large (>1 m²)

Expand to show TLE details & history
Last TLE update: 2 days ago

TLE from 2 days ago
0 STARLINK-30148
1 57617U 23119R   26171.43556094  .00000047  00000-0  11229-4 0  9995
2 57617  43.0009 221.0224 0001165 270.6031  89.4687 15.27575540158804
Epoch: 2026-06-20T10:27Z
TLE epoch observation values (Epoch: 2026-06-20T10:27:12.465Z)
Latitude
-0.00002°
Longitude
155.57022°
Altitude
482.831 km
Speed
7.626 km/s
True Right ascension
14h 44m 05s
True Declination
0° 00' 00"
Sunlit
Object was in full shadow at epoch
Visualization orbit readout
Latitude
Unknown
Longitude
Unknown
Altitude
Unknown
Speed
Unknown
Apparent Right ascension
Unknown
Apparent Declination
Unknown
Sunlit
N/A
Visualization observer readout
Local Sidereal Time
21:41:10
Azimuth
Unknown
Elevation
Unknown
Doppler factor
Unknown
Orbital elements
Apogee altitude
485.807 km
Perigee altitude
484.208 km
Semi-major axis
6,863.144 km
Eccentricity
0.00012
Inclination
43.0009°
RAAN
221.0224°
Arg. of periapsis
270.6031°
True anomaly
89.48205°
Mean anomaly
89.4687°
Eccentric anomaly
89.47537°
Mean motion
3.81732 °/min
Orbital period
94.31 mins
BSTAR
0.000011229
Loading maneuver chart data...
Computing Atmospheric mass density...
Loading historical data...
Loading historical data...
Loading historical data...
Loading historical data...
Loading historical data...
Loading historical data...
Loading historical data...

Documentation

Showing up to 5 results
|